Погода в Фахардо

Пуэрто-Рико     18˚19′25″N   65˚39′18″W
темп.,
°C
ветер,
м/с
пор.,
м/с
влажн.,
%
обл.,
%
осадки,
мм/ч
давл.,
гПа
погр.,
м
16 января, сб
сб1623:00+22˚св239573 0.0 101697
02:00+22˚в229561 0.1 101599
05:00+21˚всв129533 0.1 101498
08:00+23˚всв129252 0.2 1016158
11:00+26˚в457730 0.3 1017837
14:00+26˚в457429 0.4 1016936
17:00+25˚в347874 0.0 1014848
20:00+21˚всв239076 0.0 1016114
17 января, вс
вс1723:00+21˚всв22913 0.0 1016105
02:00+21˚всв24937 0.1 1015134
05:00+20˚всв239232 0.1 1015112
08:00+22˚св139054 0.1 1016156
11:00+26˚в567627 0.0 1017922
14:00+26˚в567517 0.1 1015908
17:00+24˚всв478694 0.8 1014714
20:00+22˚всв369597 1.3 1016221
18 января, пн
пн1823:00+22˚вюв239598 1.1 1017117
02:00+22˚в369399 1.7 1015204
05:00+22˚в489185 0.5 1015302
08:00+22˚в488777 0.5 1018425
11:00+25˚в567294 0.0 1019900
14:00+25˚в467786 0.1 1017913
17:00+24˚всв478337 0.3 1016788
20:00+22˚всв259233 0.4 1017166
19 января, вт
вт1923:00+22˚всв379432 0.4 1018228
02:00+22˚всв379440 1.1 1017230
05:00+22˚всв359484 0.6 1016177
08:00+23˚всв379383 1.5 1018444
11:00+26˚в578294 1.1 1019939
14:00+26˚всв567661 1.5 1017955
17:00+24˚св4685100 0.5 1016761
20:00+22˚св359584 1.6 1018186
20 января, ср
ср2023:00+22˚св3793100 0.6 1018273
02:00+21˚св369397 0.8 1016208
05:00+21˚св3594100 0.3 1015169
08:00+22˚св3693100 0.6 1017296
11:00+25˚всв577886 0.5 1018974
14:00+26˚всв567093 0.5 1016993
17:00+24˚всв357877 0.0 1015757
20:00+22˚св249386 0.1 1016135